Location: College Rock
(37.2713°N, 119.1740°W)
Time: 03:32:36
(UTC+00:00)

SAR-Lupe-4 - Pass Details

Date: 29 October 2020
Orbit: 481 x 484 km, 98.2° (Epoch: 22 November)

Event Time Altitude Azimuth Distance (km) Brightness Sun altitude
Rises 13:30:09 0° 187° (S) 2,532 7.2 -10.3°
Reaches altitude 10° 13:32:21 10° 198° (SSW) 1,656 6.2 -9.8°
Maximum altitude 13:35:33 31° 262° (W) 872 4.3 -9.2°
Drops below altitude 10° 13:38:46 10° 326° (NW) 1,667 5.9 -8.6°
Sets 13:41:00 0° 336° (NNW) 2,551 6.9 -8.1°
